Regional Weather Roundup
Issued by NWS

Home | Current Version | Previous Version | Text Only | Print | Product List | Glossary On
Versions: 1 2 3 4 5 6 7 8 9 10 11 12 13 14 15 16 17 18 19 20 21 22 23 24 25 26 27 28 29 30 31 32 33 34 35 36 37 38 39 40 41 42 43 44 45 46 47 48 49 50
000
ASUS43 KOAX 240502
RWRNE

WEATHER ROUNDUP FOR NEBRASKA
NATIONAL WEATHER SERVICE OMAHA NE
1200 AM CDT MON JUL 24 2017

NOTES: SATELLITE DATA IS BEING USED TO AUGMENT CLOUD COVER ABOVE
       12000 FEET.
       "FAIR" INDICATES FEW OR NO CLOUDS BELOW 12,000 FEET WITH NO
       SIGNIFICANT WEATHER AND/OR OBSTRUCTIONS TO VISIBILITY.


NEZ001>004-019>022-054>056-240600-
NEBRASKA PANHANDLE

CITY           SKY/WX    TMP DP  RH WIND       PRES   REMARKS
SCOTTSBLUFF    CLEAR     79  48  33 S7        30.00S
ALLIANCE       CLEAR     65  48  54 SE9       30.01S
CHADRON        CLEAR     80  52  37 SE14G24   29.94S
GORDON         FAIR      69  54  59 SE7       30.01S
KIMBALL        CLEAR     73  50  45 S14       30.11S
SIDNEY         CLOUDY    73  51  46 S12       30.09R
$$

NEZ057>060-069>072-079>082-240600-
SOUTHWEST NEBRASKA

CITY           SKY/WX    TMP DP  RH WIND       PRES   REMARKS
NORTH PLATTE   CLEAR     69  65  86 E7        30.03R
IMPERIAL       PTCLDY    78  55  44 S10       30.05R
LEXINGTON      CLEAR     73  66  79 SE7       30.04R
MCCOOK         CLEAR     74  63  68 E6        30.03S
OGALLALA       PTCLDY    74  55  50 S6        30.03S
$$

NEZ005>010-023>029-035>040-094-240600-
NORTH CENTRAL NEBRASKA

CITY           SKY/WX    TMP DP  RH WIND       PRES   REMARKS
VALENTINE      CLEAR     75  55  49 SE9       30.01S
AINSWORTH      CLEAR     67  59  75 SE7       30.03S
BROKEN BOW     CLEAR     69  62  78 SE6       30.04R
O`NEILL        CLEAR     67  61  80 S3        30.04R
ORD            CLEAR     68  60  75 CALM      30.02R
THEDFORD       CLEAR     73  58  58 SE8       30.04S
$$

NEZ041-046>049-061>064-073>077-083>087-240600-
SOUTH CENTRAL NEBRASKA

CITY           SKY/WX    TMP DP  RH WIND       PRES   REMARKS
GRAND ISLAND   CLEAR     70  65  84 E6        30.04R
AURORA         CLEAR     68  65  91 E5        30.03R
HASTINGS       CLEAR     74  63  68 E9        30.04R
HEBRON         CLEAR     72  66  82 CALM      30.01S
HOLDREGE       CLEAR     70  66  85 E9        30.04S
KEARNEY        CLEAR     70  66  87 E7        30.04S
YORK           CLEAR     68  63  83 E7        30.03R
$$

NEZ011>018-030>034-042>045-240600-
NORTHEAST NEBRASKA

CITY           SKY/WX    TMP DP  RH WIND       PRES   REMARKS
NORFOLK        CLEAR     65  57  75 SE6       30.02R
ALBION         CLEAR     65  60  86 CALM      30.03S
BLAIR          CLEAR     70  62  76 NE7       30.02R
COLUMBUS       CLEAR     64  60  87 E6        30.02R
FREMONT        CLEAR     70  61  72 CALM      30.02R
TEKAMAH        CLEAR     64  60  87 CALM      30.01R
WAYNE          CLEAR     62  61  98 CALM      30.02S
$$

NEZ050>053-065>068-078-088>093-240600-
SOUTHEAST NEBRASKA

CITY           SKY/WX    TMP DP  RH WIND       PRES   REMARKS
LINCOLN        CLEAR     70  63  78 CALM      30.02R
OMAHA EPPLEY   CLEAR     73  61  65 NE7       30.01R
BEATRICE       CLEAR     69  64  83 NE5       30.00S
FALLS CITY     CLEAR     71  65  81 N3        29.98R
NEBRASKA CITY  CLEAR     71  67  87 N5        30.01R
PLATTSMOUTH    CLEAR     71  61  70 CALM      30.01R
$$

NEZ044-045-051>053-067-240600-
OMAHA AREA

CITY           SKY/WX    TMP DP  RH WIND       PRES   REMARKS
OMAHA EPPLEY   CLEAR     73  61  65 NE7       30.01R
BLAIR          CLEAR     70  62  76 NE7       30.02R
FREMONT        CLEAR     70  61  72 CALM      30.02R
MILLARD        CLEAR     76  63  64 CALM      30.01R
OFFUTT AFB     CLEAR     71  61  72 NE9       30.00R
PLATTSMOUTH    CLEAR     71  61  70 CALM      30.01R
WAHOO          FAIR      65  61  85 CALM      30.01S
$$




USA.gov is the U.S. government's official web portal to all federal, state and local government web resources and services.